Time,TemperatureF,DewpointF,PressureIn,WindDirection,WindDirectionDegrees,WindSpeedMPH,WindSpeedGustMPH,Humidity,HourlyPrecipIn,Conditions,Clouds,dailyrainin,SoftwareType,DateUTC
2013-03-30 00:00:00,29.5,23.5,30.26,ENE,67,0.0,0.0,78,0.00,,,0.00,Wunderground v.1.15,2013-03-30 06:00:00,
2013-03-30 00:05:00,29.3,23.6,30.26,ENE,67,0.0,1.0,79,0.00,,,0.00,Wunderground v.1.15,2013-03-30 06:05:00,
2013-03-30 00:10:00,29.2,23.8,30.26,ENE,67,0.0,0.0,80,0.00,,,0.00,Wunderground v.1.15,2013-03-30 06:10:00,
2013-03-30 00:15:00,29.0,23.3,30.27,ENE,67,0.0,1.0,79,0.00,,,0.00,Wunderground v.1.15,2013-03-30 06:15:00,
2013-03-30 00:25:00,28.8,23.4,30.27,ENE,67,0.0,1.0,80,0.00,,,0.00,Wunderground v.1.15,2013-03-30 06:25:00,
2013-03-30 00:29:00,28.8,23.1,30.27,ENE,67,0.0,1.0,79,0.00,,,0.00,Wunderground v.1.15,2013-03-30 06:29:00,
2013-03-30 00:34:00,28.8,23.4,30.27,ENE,67,0.0,1.0,80,0.00,,,0.00,Wunderground v.1.15,2013-03-30 06:34:00,
2013-03-30 00:45:00,28.5,23.1,30.27,ENE,67,0.0,1.0,80,0.00,,,0.00,Wunderground v.1.15,2013-03-30 06:45:00,
2013-03-30 00:50:00,28.4,23.0,30.27,ENE,67,0.0,1.0,80,0.00,,,0.00,Wunderground v.1.15,2013-03-30 06:50:00,
2013-03-30 00:55:00,28.3,22.9,30.27,ENE,67,0.0,1.0,80,0.00,,,0.00,Wunderground v.1.15,2013-03-30 06:55:00,
2013-03-30 01:00:00,28.3,23.2,30.27,ENE,67,0.0,1.0,81,0.00,,,0.00,Wunderground v.1.15,2013-03-30 07:00:00,
2013-03-30 01:05:00,28.2,23.1,30.27,ENE,67,0.0,1.0,81,0.00,,,0.00,Wunderground v.1.15,2013-03-30 07:05:00,
2013-03-30 01:15:00,28.1,23.0,30.27,ENE,67,0.0,1.0,81,0.00,,,0.00,Wunderground v.1.15,2013-03-30 07:15:00,
2013-03-30 01:24:00,27.9,22.8,30.27,ENE,67,0.0,1.0,81,0.00,,,0.00,Wunderground v.1.15,2013-03-30 07:24:00,
2013-03-30 01:29:00,27.9,23.1,30.27,ENE,67,0.0,1.0,82,0.00,,,0.00,Wunderground v.1.15,2013-03-30 07:29:00,
2013-03-30 01:34:00,27.8,22.7,30.27,ENE,67,0.0,1.0,81,0.00,,,0.00,Wunderground v.1.15,2013-03-30 07:34:00,
2013-03-30 01:39:00,27.8,22.7,30.27,ENE,67,0.0,1.0,81,0.00,,,0.00,Wunderground v.1.15,2013-03-30 07:39:00,
2013-03-30 01:44:00,27.7,22.6,30.27,ENE,67,0.0,1.0,81,0.00,,,0.00,Wunderground v.1.15,2013-03-30 07:44:00,
2013-03-30 01:50:00,27.6,22.8,30.26,ENE,67,0.0,1.0,82,0.00,,,0.00,Wunderground v.1.15,2013-03-30 07:50:00,
2013-03-30 02:00:00,27.4,22.6,30.26,ENE,67,0.0,1.0,82,0.00,,,0.00,Wunderground v.1.15,2013-03-30 08:00:00,
2013-03-30 02:05:00,27.4,22.6,30.26,ENE,67,0.0,1.0,82,0.00,,,0.00,Wunderground v.1.15,2013-03-30 08:05:00,
2013-03-30 02:15:00,27.3,22.5,30.26,ENE,67,0.0,1.0,82,0.00,,,0.00,Wunderground v.1.15,2013-03-30 08:15:00,
2013-03-30 02:24:00,27.2,22.4,30.26,ENE,67,0.0,0.0,82,0.00,,,0.00,Wunderground v.1.15,2013-03-30 08:24:00,
2013-03-30 02:29:00,27.1,22.6,30.26,ENE,67,0.0,0.0,83,0.00,,,0.00,Wunderground v.1.15,2013-03-30 08:29:00,
2013-03-30 02:34:00,27.0,22.2,30.26,ENE,67,0.0,0.0,82,0.00,,,0.00,Wunderground v.1.15,2013-03-30 08:34:00,
2013-03-30 02:39:00,27.0,22.5,30.26,ENE,67,0.0,0.0,83,0.00,,,0.00,Wunderground v.1.15,2013-03-30 08:39:00,
2013-03-30 02:44:00,26.9,22.4,30.25,ENE,67,0.0,0.0,83,0.00,,,0.00,Wunderground v.1.15,2013-03-30 08:44:00,
2013-03-30 02:50:00,26.9,22.4,30.25,ENE,67,0.0,0.0,83,0.00,,,0.00,Wunderground v.1.15,2013-03-30 08:50:00,
2013-03-30 02:55:00,26.8,22.3,30.25,ENE,67,0.0,0.0,83,0.00,,,0.00,Wunderground v.1.15,2013-03-30 08:55:00,
2013-03-30 03:00:00,26.7,22.2,30.25,ENE,67,0.0,0.0,83,0.00,,,0.00,Wunderground v.1.15,2013-03-30 09:00:00,
2013-03-30 03:05:00,26.6,22.1,30.25,ENE,67,0.0,0.0,83,0.00,,,0.00,Wunderground v.1.15,2013-03-30 09:05:00,
2013-03-30 03:10:00,26.5,22.0,30.26,ENE,67,0.0,0.0,83,0.00,,,0.00,Wunderground v.1.15,2013-03-30 09:10:00,
2013-03-30 03:15:00,26.5,22.0,30.25,ENE,67,0.0,1.0,83,0.00,,,0.00,Wunderground v.1.15,2013-03-30 09:15:00,
2013-03-30 03:24:00,26.5,22.3,30.26,ENE,67,0.0,1.0,84,0.00,,,0.00,Wunderground v.1.15,2013-03-30 09:24:00,
2013-03-30 03:29:00,26.4,21.9,30.25,ENE,67,0.0,1.0,83,0.00,,,0.00,Wunderground v.1.15,2013-03-30 09:29:00,
2013-03-30 03:34:00,26.3,21.8,30.25,ENE,67,0.0,1.0,83,0.00,,,0.00,Wunderground v.1.15,2013-03-30 09:34:00,
2013-03-30 03:39:00,26.2,22.0,30.25,ENE,67,0.0,1.0,84,0.00,,,0.00,Wunderground v.1.15,2013-03-30 09:39:00,
2013-03-30 03:44:00,26.2,22.0,30.25,ENE,67,0.0,1.0,84,0.00,,,0.00,Wunderground v.1.15,2013-03-30 09:44:00,
2013-03-30 03:50:00,26.2,22.0,30.25,ENE,67,0.0,1.0,84,0.00,,,0.00,Wunderground v.1.15,2013-03-30 09:50:00,
2013-03-30 03:55:00,26.1,21.9,30.25,ENE,67,0.0,1.0,84,0.00,,,0.00,Wunderground v.1.15,2013-03-30 09:55:00,
2013-03-30 04:05:00,25.9,21.7,30.25,ENE,67,0.0,1.0,84,0.00,,,0.00,Wunderground v.1.15,2013-03-30 10:05:00,
2013-03-30 04:10:00,25.8,21.6,30.25,ENE,67,0.0,1.0,84,0.00,,,0.00,Wunderground v.1.15,2013-03-30 10:10:00,
2013-03-30 04:15:00,25.8,21.6,30.25,ENE,67,0.0,1.0,84,0.00,,,0.00,Wunderground v.1.15,2013-03-30 10:15:00,
2013-03-30 04:24:00,25.7,21.5,30.25,ENE,67,0.0,1.0,84,0.00,,,0.00,Wunderground v.1.15,2013-03-30 10:24:00,
2013-03-30 04:29:00,25.7,21.8,30.25,ENE,67,0.0,1.0,85,0.00,,,0.00,Wunderground v.1.15,2013-03-30 10:29:00,
2013-03-30 04:39:00,25.5,21.6,30.25,ENE,67,0.0,1.0,85,0.00,,,0.00,Wunderground v.1.15,2013-03-30 10:39:00,
2013-03-30 04:49:00,25.5,21.6,30.25,ENE,67,0.0,1.0,85,0.00,,,0.00,Wunderground v.1.15,2013-03-30 10:49:00,
2013-03-30 04:55:00,25.4,21.2,30.25,ENE,67,0.0,1.0,84,0.00,,,0.00,Wunderground v.1.15,2013-03-30 10:55:00,
2013-03-30 05:00:00,25.4,21.5,30.24,ENE,67,0.0,1.0,85,0.00,,,0.00,Wunderground v.1.15,2013-03-30 11:00:00,
2013-03-30 05:05:00,25.3,21.4,30.24,ENE,67,0.0,1.0,85,0.00,,,0.00,Wunderground v.1.15,2013-03-30 11:05:00,
2013-03-30 05:10:00,25.3,21.4,30.24,ENE,67,0.0,1.0,85,0.00,,,0.00,Wunderground v.1.15,2013-03-30 11:10:00,
2013-03-30 05:15:00,25.3,21.4,30.24,ENE,67,0.0,1.0,85,0.00,,,0.00,Wunderground v.1.15,2013-03-30 11:15:00,
2013-03-30 05:25:00,25.1,23.1,30.24,ENE,67,0.0,0.0,92,0.00,,,0.00,Wunderground v.1.15,2013-03-30 11:25:00,
2013-03-30 05:30:00,25.1,21.2,30.25,ENE,67,0.0,0.0,85,0.00,,,0.00,Wunderground v.1.15,2013-03-30 11:30:00,
2013-03-30 05:35:00,25.0,21.1,30.25,ENE,67,0.0,0.0,85,0.00,,,0.00,Wunderground v.1.15,2013-03-30 11:35:00,
2013-03-30 05:40:00,25.0,21.1,30.25,ENE,67,0.0,0.0,85,0.00,,,0.00,Wunderground v.1.15,2013-03-30 11:40:00,
2013-03-30 05:44:00,24.9,21.0,30.25,ENE,67,0.0,0.0,85,0.00,,,0.00,Wunderground v.1.15,2013-03-30 11:44:00,
2013-03-30 05:49:00,24.8,20.9,30.25,ENE,67,0.0,0.0,85,0.00,,,0.00,Wunderground v.1.15,2013-03-30 11:49:00,
2013-03-30 05:54:00,24.8,20.9,30.25,ENE,67,0.0,0.0,85,0.00,,,0.00,Wunderground v.1.15,2013-03-30 11:54:00,
2013-03-30 06:00:00,24.8,21.2,30.26,ENE,67,0.0,0.0,86,0.00,,,0.00,Wunderground v.1.15,2013-03-30 12:00:00,
2013-03-30 06:05:00,24.7,21.1,30.26,ENE,67,0.0,0.0,86,0.00,,,0.00,Wunderground v.1.15,2013-03-30 12:05:00,
2013-03-30 06:10:00,24.6,20.7,30.26,ENE,67,0.0,0.0,85,0.00,,,0.00,Wunderground v.1.15,2013-03-30 12:10:00,
2013-03-30 06:15:00,24.5,20.6,30.26,ENE,67,0.0,0.0,85,0.00,,,0.00,Wunderground v.1.15,2013-03-30 12:15:00,
2013-03-30 06:25:00,24.5,20.9,30.27,ENE,67,0.0,0.0,86,0.00,,,0.00,Wunderground v.1.15,2013-03-30 12:25:00,
2013-03-30 06:35:00,24.3,20.7,30.28,ENE,67,0.0,0.0,86,0.00,,,0.00,Wunderground v.1.15,2013-03-30 12:35:00,
2013-03-30 06:40:00,24.3,20.7,30.28,ENE,67,0.0,0.0,86,0.00,,,0.00,Wunderground v.1.15,2013-03-30 12:40:00,
2013-03-30 06:45:00,24.3,20.7,30.27,ENE,67,0.0,0.0,86,0.00,,,0.00,Wunderground v.1.15,2013-03-30 12:45:00,
2013-03-30 06:49:00,24.3,21.0,30.27,ENE,67,0.0,0.0,87,0.00,,,0.00,Wunderground v.1.15,2013-03-30 12:49:00,
2013-03-30 06:54:00,24.4,21.1,30.27,ENE,67,0.0,0.0,87,0.00,,,0.00,Wunderground v.1.15,2013-03-30 12:54:00,
2013-03-30 07:05:00,24.5,20.9,30.27,ENE,67,0.0,0.0,86,0.00,,,0.00,Wunderground v.1.15,2013-03-30 13:05:00,
2013-03-30 07:10:00,24.5,20.9,30.27,ENE,67,0.0,0.0,86,0.00,,,0.00,Wunderground v.1.15,2013-03-30 13:10:00,
2013-03-30 07:15:00,24.5,20.9,30.27,ENE,67,0.0,0.0,86,0.00,,,0.00,Wunderground v.1.15,2013-03-30 13:15:00,
2013-03-30 07:25:00,24.4,20.8,30.28,ENE,67,0.0,0.0,86,0.00,,,0.00,Wunderground v.1.15,2013-03-30 13:25:00,
2013-03-30 07:35:00,24.5,21.2,30.28,ENE,67,0.0,0.0,87,0.00,,,0.00,Wunderground v.1.15,2013-03-30 13:35:00,
2013-03-30 07:40:00,24.5,21.2,30.28,ENE,67,0.0,1.0,87,0.00,,,0.00,Wunderground v.1.15,2013-03-30 13:40:00,
2013-03-30 07:45:00,24.5,21.2,30.29,ENE,67,0.0,1.0,87,0.00,,,0.00,Wunderground v.1.15,2013-03-30 13:45:00,
2013-03-30 07:55:00,24.5,21.2,30.28,ENE,67,0.0,0.0,87,0.00,,,0.00,Wunderground v.1.15,2013-03-30 13:55:00,
2013-03-30 08:04:00,24.6,21.3,30.29,ENE,67,0.0,0.0,87,0.00,,,0.00,Wunderground v.1.15,2013-03-30 14:04:00,
2013-03-30 08:09:00,24.7,21.4,30.29,ENE,67,0.0,0.0,87,0.00,,,0.00,Wunderground v.1.15,2013-03-30 14:09:00,
2013-03-30 08:15:00,24.9,21.8,30.29,ENE,67,0.0,0.0,88,0.00,,,0.00,Wunderground v.1.15,2013-03-30 14:15:00,
2013-03-30 08:24:00,25.4,22.3,30.29,ENE,67,0.0,0.0,88,0.00,,,0.00,Wunderground v.1.15,2013-03-30 14:24:00,
2013-03-30 08:35:00,26.5,23.7,30.28,ENE,67,0.0,0.0,89,0.00,,,0.00,Wunderground v.1.15,2013-03-30 14:35:00,
2013-03-30 08:40:00,27.1,24.3,30.28,ENE,67,0.0,1.0,89,0.00,,,0.00,Wunderground v.1.15,2013-03-30 14:40:00,
2013-03-30 08:45:00,27.9,24.5,30.28,ENE,67,0.0,1.0,87,0.00,,,0.00,Wunderground v.1.15,2013-03-30 14:45:00,
2013-03-30 08:55:00,29.3,25.4,30.28,ENE,67,0.0,0.0,85,0.00,,,0.00,Wunderground v.1.15,2013-03-30 14:55:00,
2013-03-30 09:00:00,30.5,26.2,30.27,ENE,67,0.0,0.0,84,0.00,,,0.00,Wunderground v.1.15,2013-03-30 15:00:00,
2013-03-30 09:10:00,34.4,26.6,30.26,ENE,67,0.0,0.0,73,0.00,,,0.00,Wunderground v.1.15,2013-03-30 15:10:00,
2013-03-30 09:15:00,37.0,26.3,30.26,ENE,67,0.0,1.0,65,0.00,,,0.00,Wunderground v.1.15,2013-03-30 15:15:00,
2013-03-30 09:25:00,40.8,28.0,30.25,ENE,67,0.0,1.0,60,0.00,,,0.00,Wunderground v.1.15,2013-03-30 15:25:00,
2013-03-30 09:30:00,42.4,28.2,30.25,SSW,193,0.0,1.0,57,0.00,,,0.00,Wunderground v.1.15,2013-03-30 15:30:00,
2013-03-30 09:35:00,44.2,27.7,30.25,SSW,193,0.0,1.0,52,0.00,,,0.00,Wunderground v.1.15,2013-03-30 15:35:00,
2013-03-30 09:45:00,46.4,25.6,30.24,SSW,193,0.0,1.0,44,0.00,,,0.00,Wunderground v.1.15,2013-03-30 15:45:00,
2013-03-30 09:50:00,45.6,26.0,30.24,SSW,193,1.0,1.0,46,0.00,,,0.00,Wunderground v.1.15,2013-03-30 15:50:00,
2013-03-30 09:55:00,46.2,26.5,30.23,SSW,193,1.0,1.0,46,0.00,,,0.00,Wunderground v.1.15,2013-03-30 15:55:00,
2013-03-30 10:00:00,47.9,25.9,30.23,SSW,193,0.0,1.0,42,0.00,,,0.00,Wunderground v.1.15,2013-03-30 16:00:00,
2013-03-30 10:04:00,48.8,26.7,30.23,South,190,0.0,1.0,42,0.00,,,0.00,Wunderground v.1.15,2013-03-30 16:04:00,
2013-03-30 10:15:00,48.8,24.3,30.22,South,178,1.0,3.0,38,0.00,,,0.00,Wunderground v.1.15,2013-03-30 16:15:00,
2013-03-30 10:24:00,48.8,25.5,30.22,South,178,0.0,3.0,40,0.00,,,0.00,Wunderground v.1.15,2013-03-30 16:24:00,
2013-03-30 10:29:00,49.2,25.9,30.22,South,178,0.0,3.0,40,0.00,,,0.00,Wunderground v.1.15,2013-03-30 16:29:00,
2013-03-30 10:35:00,50.3,26.9,30.22,South,178,0.0,3.0,40,0.00,,,0.00,Wunderground v.1.15,2013-03-30 16:35:00,
2013-03-30 10:45:00,51.0,26.9,30.21,South,178,0.0,3.0,39,0.00,,,0.00,Wunderground v.1.15,2013-03-30 16:45:00,
2013-03-30 10:50:00,51.5,25.4,30.21,ESE,105,1.0,3.0,36,0.00,,,0.00,Wunderground v.1.15,2013-03-30 16:50:00,
2013-03-30 10:55:00,52.3,28.1,30.21,ESE,105,0.0,3.0,39,0.00,,,0.00,Wunderground v.1.15,2013-03-30 16:55:00,
2013-03-30 11:00:00,53.0,26.0,30.20,ESE,105,0.0,3.0,35,0.00,,,0.00,Wunderground v.1.15,2013-03-30 17:00:00,
2013-03-30 11:05:00,53.0,26.7,30.20,ESE,105,1.0,3.0,36,0.00,,,0.00,Wunderground v.1.15,2013-03-30 17:05:00,
2013-03-30 11:10:00,54.4,26.6,30.20,ESE,105,0.0,3.0,34,0.00,,,0.00,Wunderground v.1.15,2013-03-30 17:10:00,
2013-03-30 11:15:00,55.1,26.5,30.20,ESE,105,1.0,4.0,33,0.00,,,0.00,Wunderground v.1.15,2013-03-30 17:15:00,
2013-03-30 11:25:00,54.5,27.4,30.19,South,181,0.0,4.0,35,0.00,,,0.00,Wunderground v.1.15,2013-03-30 17:25:00,
2013-03-30 11:30:00,55.5,25.3,30.20,South,181,0.0,4.0,31,0.00,,,0.00,Wunderground v.1.15,2013-03-30 17:30:00,
2013-03-30 11:35:00,56.2,25.9,30.19,South,187,1.0,4.0,31,0.00,,,0.00,Wunderground v.1.15,2013-03-30 17:35:00,
2013-03-30 11:40:00,56.8,24.0,30.19,SSW,200,2.0,4.0,28,0.00,,,0.00,Wunderground v.1.15,2013-03-30 17:40:00,
2013-03-30 11:49:00,56.4,22.8,30.19,ESE,114,2.0,4.0,27,0.00,,,0.00,Wunderground v.1.15,2013-03-30 17:49:00,
2013-03-30 11:54:00,56.2,24.3,30.18,ESE,111,2.0,4.0,29,0.00,,,0.00,Wunderground v.1.15,2013-03-30 17:54:00,
2013-03-30 11:59:00,55.9,22.4,30.18,SSE,162,1.0,4.0,27,0.00,,,0.00,Wunderground v.1.15,2013-03-30 17:59:00,
2013-03-30 12:05:00,55.6,23.0,30.18,SSE,162,1.0,4.0,28,0.00,,,0.00,Wunderground v.1.15,2013-03-30 18:05:00,
2013-03-30 12:15:00,56.4,22.8,30.17,SW,232,1.0,4.0,27,0.00,,,0.00,Wunderground v.1.15,2013-03-30 18:15:00,
2013-03-30 12:25:00,57.0,22.4,30.18,SSE,155,1.0,2.0,26,0.00,,,0.00,Wunderground v.1.15,2013-03-30 18:25:00,
2013-03-30 12:30:00,57.2,22.6,30.17,SSW,202,1.0,4.0,26,0.00,,,0.00,Wunderground v.1.15,2013-03-30 18:30:00,
2013-03-30 12:35:00,57.5,25.5,30.17,SW,223,2.0,4.0,29,0.00,,,0.00,Wunderground v.1.15,2013-03-30 18:35:00,
2013-03-30 12:45:00,58.7,26.5,30.16,ESE,121,2.0,4.0,29,0.00,,,0.00,Wunderground v.1.15,2013-03-30 18:45:00,
2013-03-30 12:54:00,59.5,26.3,30.16,SW,219,2.0,6.0,28,0.00,,,0.00,Wunderground v.1.15,2013-03-30 18:54:00,
2013-03-30 12:59:00,59.5,27.2,30.16,ESE,115,2.0,4.0,29,0.00,,,0.00,Wunderground v.1.15,2013-03-30 18:59:00,
2013-03-30 13:04:00,59.1,26.8,30.15,SSE,164,2.0,4.0,29,0.00,,,0.00,Wunderground v.1.15,2013-03-30 19:04:00,
2013-03-30 13:15:00,57.2,25.2,30.15,SSW,213,2.0,9.0,29,0.00,,,0.00,Wunderground v.1.15,2013-03-30 19:15:00,
2013-03-30 13:20:00,57.4,25.4,30.15,SW,214,1.0,9.0,29,0.00,,,0.00,Wunderground v.1.15,2013-03-30 19:20:00,
2013-03-30 13:25:00,57.7,25.6,30.14,ESE,117,1.0,9.0,29,0.00,,,0.00,Wunderground v.1.15,2013-03-30 19:25:00,
2013-03-30 13:30:00,58.0,26.7,30.14,ESE,117,1.0,1.0,30,0.00,,,0.00,Wunderground v.1.15,2013-03-30 19:30:00,
2013-03-30 13:35:00,57.9,25.8,30.14,ESE,107,1.0,2.0,29,0.00,,,0.00,Wunderground v.1.15,2013-03-30 19:35:00,
2013-03-30 13:40:00,57.4,24.5,30.14,ESE,105,2.0,9.0,28,0.00,,,0.00,Wunderground v.1.15,2013-03-30 19:40:00,
2013-03-30 13:49:00,57.6,21.0,30.13,SSW,212,2.0,2.0,24,0.00,,,0.00,Wunderground v.1.15,2013-03-30 19:49:00,
2013-03-30 13:54:00,58.5,20.8,30.13,SW,235,2.0,9.0,23,0.00,,,0.00,Wunderground v.1.15,2013-03-30 19:54:00,
2013-03-30 14:04:00,60.6,22.6,30.13,SE,132,1.0,9.0,23,0.00,,,0.00,Wunderground v.1.15,2013-03-30 20:04:00,
2013-03-30 14:09:00,61.2,23.1,30.12,SE,132,1.0,9.0,23,0.00,,,0.00,Wunderground v.1.15,2013-03-30 20:09:00,
2013-03-30 14:15:00,59.8,21.9,30.12,South,184,2.0,9.0,23,0.00,,,0.00,Wunderground v.1.15,2013-03-30 20:15:00,
2013-03-30 14:25:00,58.0,23.3,30.12,SW,223,2.0,7.0,26,0.00,,,0.00,Wunderground v.1.15,2013-03-30 20:25:00,
2013-03-30 14:30:00,57.5,23.7,30.12,East,82,1.0,1.0,27,0.00,,,0.00,Wunderground v.1.15,2013-03-30 20:30:00,
2013-03-30 14:35:00,57.3,24.4,30.12,SSW,208,1.0,7.0,28,0.00,,,0.00,Wunderground v.1.15,2013-03-30 20:35:00,
2013-03-30 14:40:00,57.5,24.6,30.11,ESE,117,1.0,1.0,28,0.00,,,0.00,Wunderground v.1.15,2013-03-30 20:40:00,
2013-03-30 14:45:00,57.9,23.2,30.11,WSW,257,1.0,7.0,26,0.00,,,0.00,Wunderground v.1.15,2013-03-30 20:45:00,
2013-03-30 14:50:00,58.2,21.5,30.10,WSW,256,1.0,1.0,24,0.00,,,0.00,Wunderground v.1.15,2013-03-30 20:50:00,
2013-03-30 14:59:00,58.8,24.9,30.10,SSW,205,1.0,7.0,27,0.00,,,0.00,Wunderground v.1.15,2013-03-30 20:59:00,
2013-03-30 15:04:00,59.1,22.3,30.10,SW,221,1.0,7.0,24,0.00,,,0.00,Wunderground v.1.15,2013-03-30 21:04:00,
2013-03-30 15:15:00,58.1,22.4,30.09,SW,215,3.0,7.0,25,0.00,,,0.00,Wunderground v.1.15,2013-03-30 21:15:00,
2013-03-30 15:25:00,58.5,22.8,30.09,SW,221,1.0,3.0,25,0.00,,,0.00,Wunderground v.1.15,2013-03-30 21:25:00,
2013-03-30 15:35:00,58.1,22.4,30.09,SW,234,1.0,3.0,25,0.00,,,0.00,Wunderground v.1.15,2013-03-30 21:35:00,
2013-03-30 15:40:00,58.4,20.7,30.09,SW,227,1.0,3.0,23,0.00,,,0.00,Wunderground v.1.15,2013-03-30 21:40:00,
2013-03-30 15:45:00,58.9,21.1,30.09,SSW,204,1.0,3.0,23,0.00,,,0.00,Wunderground v.1.15,2013-03-30 21:45:00,
2013-03-30 15:50:00,58.7,21.0,30.09,SW,232,1.0,1.0,23,0.00,,,0.00,Wunderground v.1.15,2013-03-30 21:50:00,
2013-03-30 16:00:00,58.3,24.4,30.09,South,188,1.0,1.0,27,0.00,,,0.00,Wunderground v.1.15,2013-03-30 22:00:00,
2013-03-30 16:05:00,58.2,22.5,30.09,SE,126,1.0,3.0,25,0.00,,,0.00,Wunderground v.1.15,2013-03-30 22:05:00,
2013-03-30 16:15:00,57.2,22.6,30.09,ESE,111,1.0,5.0,26,0.00,,,0.00,Wunderground v.1.15,2013-03-30 22:15:00,
2013-03-30 16:24:00,56.6,21.1,30.09,East,82,1.0,3.0,25,0.00,,,0.00,Wunderground v.1.15,2013-03-30 22:24:00,
2013-03-30 16:30:00,56.2,23.5,30.08,WSW,239,1.0,5.0,28,0.00,,,0.00,Wunderground v.1.15,2013-03-30 22:30:00,
2013-03-30 16:35:00,56.2,20.8,30.08,East,88,1.0,5.0,25,0.00,,,0.00,Wunderground v.1.15,2013-03-30 22:35:00,
2013-03-30 16:45:00,56.3,21.8,30.08,SE,128,1.0,5.0,26,0.00,,,0.00,Wunderground v.1.15,2013-03-30 22:45:00,
2013-03-30 16:50:00,56.0,21.6,30.08,East,80,1.0,5.0,26,0.00,,,0.00,Wunderground v.1.15,2013-03-30 22:50:00,
2013-03-30 16:59:00,55.4,21.0,30.08,SW,236,1.0,1.0,26,0.00,,,0.00,Wunderground v.1.15,2013-03-30 22:59:00,
2013-03-30 17:04:00,55.3,21.0,30.08,SW,236,1.0,5.0,26,0.00,,,0.00,Wunderground v.1.15,2013-03-30 23:04:00,
2013-03-30 17:09:00,55.5,21.1,30.08,South,170,0.0,5.0,26,0.00,,,0.00,Wunderground v.1.15,2013-03-30 23:09:00,
2013-03-30 17:15:00,55.6,20.3,30.07,South,169,0.0,5.0,25,0.00,,,0.00,Wunderground v.1.15,2013-03-30 23:15:00,
2013-03-30 17:24:00,55.4,23.6,30.07,West,264,0.0,4.0,29,0.00,,,0.00,Wunderground v.1.15,2013-03-30 23:24:00,
2013-03-30 17:30:00,55.2,21.8,30.07,West,263,1.0,4.0,27,0.00,,,0.00,Wunderground v.1.15,2013-03-30 23:30:00,
2013-03-30 17:35:00,54.9,22.4,30.07,WSW,249,1.0,4.0,28,0.00,,,0.00,Wunderground v.1.15,2013-03-30 23:35:00,
2013-03-30 17:40:00,54.6,21.2,30.07,SSW,195,1.0,1.0,27,0.00,,,0.00,Wunderground v.1.15,2013-03-30 23:40:00,
2013-03-30 17:45:00,54.5,23.7,30.07,South,191,1.0,2.0,30,0.00,,,0.00,Wunderground v.1.15,2013-03-30 23:45:00,
2013-03-30 17:50:00,54.3,23.5,30.07,SSW,196,1.0,1.0,30,0.00,,,0.00,Wunderground v.1.15,2013-03-30 23:50:00,
2013-03-30 17:55:00,54.1,21.7,30.07,SSW,196,1.0,4.0,28,0.00,,,0.00,Wunderground v.1.15,2013-03-30 23:55:00,
2013-03-30 18:05:00,54.1,23.3,30.07,SSW,196,0.0,4.0,30,0.00,,,0.00,Wunderground v.1.15,2013-03-31 00:05:00,
2013-03-30 18:10:00,54.1,23.3,30.07,SSW,196,0.0,4.0,30,0.00,,,0.00,Wunderground v.1.15,2013-03-31 00:10:00,
2013-03-30 18:15:00,53.9,23.1,30.07,SSW,196,0.0,4.0,30,0.00,,,0.00,Wunderground v.1.15,2013-03-31 00:15:00,
2013-03-30 18:24:00,53.4,23.5,30.07,SE,130,0.0,2.0,31,0.00,,,0.00,Wunderground v.1.15,2013-03-31 00:24:00,
2013-03-30 18:35:00,52.6,23.5,30.08,SE,130,0.0,2.0,32,0.00,,,0.00,Wunderground v.1.15,2013-03-31 00:35:00,
2013-03-30 18:40:00,52.2,23.2,30.08,SE,130,0.0,2.0,32,0.00,,,0.00,Wunderground v.1.15,2013-03-31 00:40:00,
2013-03-30 18:45:00,51.9,23.7,30.08,SE,130,0.0,2.0,33,0.00,,,0.00,Wunderground v.1.15,2013-03-31 00:45:00,
2013-03-30 18:55:00,51.0,25.0,30.08,SE,130,0.0,2.0,36,0.00,,,0.00,Wunderground v.1.15,2013-03-31 00:55:00,
2013-03-30 19:04:00,49.7,25.1,30.09,SE,130,0.0,2.0,38,0.00,,,0.00,Wunderground v.1.15,2013-03-31 01:04:00,
2013-03-30 19:09:00,49.5,24.3,30.09,SE,130,0.0,2.0,37,0.00,,,0.00,Wunderground v.1.15,2013-03-31 01:09:00,
2013-03-30 19:15:00,49.2,24.6,30.09,SE,130,0.0,2.0,38,0.00,,,0.00,Wunderground v.1.15,2013-03-31 01:15:00,
2013-03-30 19:24:00,48.6,25.3,30.09,SE,130,0.0,2.0,40,0.00,,,0.00,Wunderground v.1.15,2013-03-31 01:24:00,
2013-03-30 19:30:00,48.1,24.3,30.09,SE,130,0.0,2.0,39,0.00,,,0.00,Wunderground v.1.15,2013-03-31 01:30:00,
2013-03-30 19:40:00,47.4,25.4,30.10,SE,130,0.0,2.0,42,0.00,,,0.00,Wunderground v.1.15,2013-03-31 01:40:00,
2013-03-30 19:45:00,46.7,25.9,30.10,SE,130,0.0,2.0,44,0.00,,,0.00,Wunderground v.1.15,2013-03-31 01:45:00,
2013-03-30 19:50:00,46.2,26.5,30.10,SE,130,0.0,2.0,46,0.00,,,0.00,Wunderground v.1.15,2013-03-31 01:50:00,
2013-03-30 19:55:00,46.0,24.7,30.10,SE,133,0.0,2.0,43,0.00,,,0.00,Wunderground v.1.15,2013-03-31 01:55:00,
2013-03-30 20:00:00,46.1,25.9,30.10,SE,133,0.0,2.0,45,0.00,,,0.00,Wunderground v.1.15,2013-03-31 02:00:00,
2013-03-30 20:09:00,46.1,25.9,30.10,SE,133,0.0,2.0,45,0.00,,,0.00,Wunderground v.1.15,2013-03-31 02:09:00,
2013-03-30 20:15:00,45.9,25.7,30.11,SE,133,0.0,2.0,45,0.00,,,0.00,Wunderground v.1.15,2013-03-31 02:15:00,
2013-03-30 20:25:00,45.2,26.7,30.11,SE,133,0.0,2.0,48,0.00,,,0.00,Wunderground v.1.15,2013-03-31 02:25:00,
2013-03-30 20:30:00,44.9,25.9,30.11,SE,133,0.0,2.0,47,0.00,,,0.00,Wunderground v.1.15,2013-03-31 02:30:00,
2013-03-30 20:35:00,44.4,24.9,30.11,SE,133,0.0,2.0,46,0.00,,,0.00,Wunderground v.1.15,2013-03-31 02:35:00,
2013-03-30 20:45:00,43.3,24.4,30.11,SE,133,0.0,2.0,47,0.00,,,0.00,Wunderground v.1.15,2013-03-31 02:45:00,
2013-03-30 20:50:00,43.0,24.6,30.12,SE,133,0.0,2.0,48,0.00,,,0.00,Wunderground v.1.15,2013-03-31 02:50:00,
2013-03-30 20:55:00,42.6,24.8,30.11,SE,133,0.0,2.0,49,0.00,,,0.00,Wunderground v.1.15,2013-03-31 02:55:00,
2013-03-30 20:59:00,42.1,26.2,30.11,SE,133,0.0,2.0,53,0.00,,,0.00,Wunderground v.1.15,2013-03-31 02:59:00,
2013-03-30 21:04:00,41.5,25.6,30.11,SE,133,0.0,2.0,53,0.00,,,0.00,Wunderground v.1.15,2013-03-31 03:04:00,
2013-03-30 21:10:00,41.0,26.1,30.11,SE,133,0.0,2.0,55,0.00,,,0.00,Wunderground v.1.15,2013-03-31 03:10:00,
2013-03-30 21:15:00,40.4,26.8,30.11,SE,133,0.0,2.0,58,0.00,,,0.00,Wunderground v.1.15,2013-03-31 03:15:00,
2013-03-30 21:25:00,39.2,26.5,30.11,SE,133,0.0,0.0,60,0.00,,,0.00,Wunderground v.1.15,2013-03-31 03:25:00,
2013-03-30 21:30:00,38.7,26.4,30.11,SE,133,0.0,0.0,61,0.00,,,0.00,Wunderground v.1.15,2013-03-31 03:30:00,
2013-03-30 21:40:00,38.0,26.5,30.11,SE,133,0.0,0.0,63,0.00,,,0.00,Wunderground v.1.15,2013-03-31 03:40:00,
2013-03-30 21:45:00,37.7,26.2,30.11,SE,133,0.0,0.0,63,0.00,,,0.00,Wunderground v.1.15,2013-03-31 03:45:00,
2013-03-30 21:49:00,37.3,25.5,30.12,SE,133,0.0,0.0,62,0.00,,,0.00,Wunderground v.1.15,2013-03-31 03:49:00,
2013-03-30 21:54:00,37.0,25.2,30.12,SE,133,0.0,0.0,62,0.00,,,0.00,Wunderground v.1.15,2013-03-31 03:54:00,
2013-03-30 22:04:00,36.5,25.1,30.13,SE,133,0.0,0.0,63,0.00,,,0.00,Wunderground v.1.15,2013-03-31 04:04:00,
2013-03-30 22:09:00,36.3,25.3,30.12,SE,133,0.0,0.0,64,0.00,,,0.00,Wunderground v.1.15,2013-03-31 04:09:00,
2013-03-30 22:15:00,36.0,25.7,30.13,SE,133,0.0,0.0,66,0.00,,,0.00,Wunderground v.1.15,2013-03-31 04:15:00,
2013-03-30 22:25:00,35.5,25.6,30.13,SE,133,0.0,0.0,67,0.00,,,0.00,Wunderground v.1.15,2013-03-31 04:25:00,
2013-03-30 22:30:00,35.2,25.0,30.13,SE,133,0.0,0.0,66,0.00,,,0.00,Wunderground v.1.15,2013-03-31 04:30:00,
2013-03-30 22:35:00,35.0,24.8,30.13,SE,133,0.0,0.0,66,0.00,,,0.00,Wunderground v.1.15,2013-03-31 04:35:00,
2013-03-30 22:44:00,34.7,24.9,30.13,SE,133,0.0,0.0,67,0.00,,,0.00,Wunderground v.1.15,2013-03-31 04:44:00,
2013-03-30 22:54:00,34.3,24.8,30.13,SE,133,0.0,0.0,68,0.00,,,0.00,Wunderground v.1.15,2013-03-31 04:54:00,
2013-03-30 22:59:00,34.1,24.3,30.13,SE,133,0.0,1.0,67,0.00,,,0.00,Wunderground v.1.15,2013-03-31 04:59:00,
2013-03-30 23:04:00,33.7,24.6,30.13,SE,133,0.0,1.0,69,0.00,,,0.00,Wunderground v.1.15,2013-03-31 05:04:00,
2013-03-30 23:10:00,33.4,24.0,30.13,SE,133,0.0,0.0,68,0.00,,,0.00,Wunderground v.1.15,2013-03-31 05:10:00,
2013-03-30 23:15:00,33.2,24.5,30.13,SE,133,0.0,1.0,70,0.00,,,0.00,Wunderground v.1.15,2013-03-31 05:15:00,
2013-03-30 23:25:00,32.9,24.2,30.13,SE,133,0.0,1.0,70,0.00,,,0.00,Wunderground v.1.15,2013-03-31 05:25:00,
2013-03-30 23:30:00,32.6,23.6,30.13,SE,133,0.0,1.0,69,0.00,,,0.00,Wunderground v.1.15,2013-03-31 05:30:00,
2013-03-30 23:40:00,32.1,23.8,30.13,SE,133,0.0,1.0,71,0.00,,,0.00,Wunderground v.1.15,2013-03-31 05:40:00,
2013-03-30 23:49:00,31.7,24.0,30.13,SE,133,0.0,1.0,73,0.00,,,0.00,Wunderground v.1.15,2013-03-31 05:49:00,
2013-03-30 23:54:00,31.5,23.8,30.13,SE,133,0.0,1.0,73,0.00,,,0.00,Wunderground v.1.15,2013-03-31 05:54:00,
2013-03-30 23:59:00,31.3,23.6,30.14,SE,133,0.0,1.0,73,0.00,,,0.00,Wunderground v.1.15,2013-03-31 05:59:00,